CW1020 Weather Reports


time (UTC)temp
C
wind
direction
speed
KPH
gust
KPH
rain 1hr
cm
rain 24hr
cm
rain mn
cm
humidity
%
barometer
mb
20260903200502 20 239 20.9 27.4 0.00 0.00 0.00 50 1016.6
20260903200002 20 234 19.3 29.0 0.00 0.00 0.00 50 1016.6
20260903195503 20 241 17.7 30.6 0.00 0.00 0.00 51 1016.7
20260903195003 20 243 17.7 22.5 0.00 0.00 0.00 52 1016.8
20260903194502 19 241 19.3 33.8 0.00 0.00 0.00 53 1016.6
20260903194002 19 241 20.9 29.0 0.00 0.00 0.00 53 1016.7
20260903193503 19 238 19.3 32.2 0.00 0.00 0.00 53 1016.8
20260903193002 19 238 19.3 29.0 0.00 0.00 0.00 52 1016.9
20260903192502 19 235 20.9 29.0 0.00 0.00 0.00 52 1016.9
20260903192002 19 235 19.3 30.6 0.00 0.00 0.00 51 1016.8
20260903191502 19 235 17.7 29.0 0.00 0.00 0.00 49 1016.8
20260903191003 19 236 17.7 27.4 0.00 0.00 0.00 52 1017.1
20260903190502 19 235 19.3 27.4 0.00 0.00 0.00 52 1017.0
20260903190003 18 236 20.9 29.0 0.00 0.00 0.00 53 1017.2
20260903185503 18 237 19.3 27.4 0.00 0.00 0.00 51 1017.1
20260903185002 18 237 17.7 30.6 0.00 0.00 0.00 54 1017.3
20260903184503 18 233 17.7 29.0 0.00 0.00 0.00 53 1017.4
20260903184002 18 237 17.7 32.2 0.00 0.00 0.00 52 1017.3
20260903183502 18 234 17.7 27.4 0.00 0.00 0.00 53 1017.4
20260903183003 18 237 16.1 24.1 0.00 0.00 0.00 53 1017.5
20260903182502 18 239 14.5 29.0 0.00 0.00 0.00 52 1017.5
20260903182002 18 233 16.1 25.7 0.00 0.00 0.00 54 1017.5
20260903181502 18 238 14.5 24.1 0.00 0.00 0.00 55 1017.6
20260903181003 17 235 16.1 24.1 0.00 0.00 0.00 56 1017.6
20260903180502 17 232 16.1 22.5 0.00 0.00 0.00 56 1017.6
20260903180003 17 236 14.5 29.0 0.00 0.00 0.00 56 1017.7
20260903175502 17 238 11.3 24.1 0.00 0.00 0.00 58 1017.8
20260903175002 17 239 11.3 25.7 0.00 0.00 0.00 60 1017.9
20260903174503 17 239 11.3 22.5 0.00 0.00 0.00 60 1017.9
20260903174002 17 245 11.3 22.5 0.00 0.00 0.00 60 1017.8
20260903173503 16 247 12.9 22.5 0.00 0.00 0.00 61 1017.9
20260903173002 16 242 12.9 20.9 0.00 0.00 0.00 61 1018.0
20260903172003 16 242 8.0 19.3 0.00 0.00 0.00 61 1018.1
20260903171502 16 252 8.0 16.1 0.00 0.00 0.00 61 1018.1
20260903171002 16 242 9.7 12.9 0.00 0.00 0.00 62 1018.2
20260903170502 16 243 6.4 16.1 0.00 0.00 0.00 61 1018.1
20260903170002 16 245 4.8 17.7 0.00 0.00 0.00 62 1018.1
20260903165502 16 245 4.8 14.5 0.00 0.00 0.00 63 1018.1
20260903164502 15 235 4.8 16.1 0.00 0.00 0.00 63 1018.0
20260903164002 15 242 3.2 14.5 0.00 0.00 0.00 64 1018.1
20260903163502 15 245 3.2 6.4 0.00 0.00 0.00 64 1018.0
20260903162502 15 244 4.8 8.0 0.00 0.00 0.00 66 1018.1
20260903162003 15 236 4.8 8.0 0.00 0.00 0.00 66 1018.1
20260903161503 14 237 4.8 8.0 0.00 0.00 0.00 66 1018.1
20260903161002 14 241 4.8 12.9 0.00 0.00 0.00 66 1018.0
20260903160502 14 241 4.8 12.9 0.00 0.00 0.00 67 1018.1
20260903155502 14 242 4.8 12.9 0.00 0.00 0.00 67 1018.2
20260903155003 13 241 3.2 11.3 0.00 0.00 0.00 67 1018.1
20260903154502 13 241 3.2 6.4 0.00 0.00 0.00 68 1018.1
20260903154002 13 241 1.6 4.8 0.00 0.00 0.00 68 1018.1
20260903153502 13 249 1.6 4.8 0.00 0.00 0.00 68 1018.2
20260903153002 13 235 1.6 4.8 0.00 0.00 0.00 69 1018.2
20260903152503 13 244 1.6 3.2 0.00 0.00 0.00 70 1018.2
20260903152002 12 249 1.6 3.2 0.00 0.00 0.00 71 1018.2
20260903151502 12 252 0.0 4.8 0.00 0.00 0.00 72 1018.2
20260903151002 12 288 0.0 1.6 0.00 0.00 0.00 73 1018.3
20260903150502 12 269 0.0 3.2 0.00 0.00 0.00 73 1018.3
20260903150003 11 267 0.0 1.6 0.00 0.00 0.00 73 1018.3
20260903145503 11 262 0.0 1.6 0.00 0.00 0.00 73 1018.4
20260903145002 11 261 0.0 1.6 0.00 0.00 0.00 72 1018.3
20260903144502 11 260 0.0 1.6 0.00 0.00 0.00 72 1018.3
20260903144002 11 0 0.0 0.0 0.00 0.00 0.00 72 1018.3
20260903143503 11 260 0.0 1.6 0.00 0.00 0.00 71 1018.2
20260903143002 11 0 0.0 0.0 0.00 0.00 0.00 71 1018.2
20260903142502 11 231 0.0 3.2 0.00 0.00 0.00 71 1018.1
20260903142003 11 169 0.0 1.6 0.00 0.00 0.00 71 1018.1
20260903141502 11 0 0.0 0.0 0.00 0.00 0.00 72 1018.1
20260903140003 11 0 0.0 0.0 0.00 0.00 0.00 73 1018.3
20260903135502 11 0 0.0 0.0 0.00 0.00 0.00 71 1018.0
20260903135002 11 0 0.0 0.0 0.00 0.00 0.00 71 1017.9
20260903134502 12 0 0.0 0.0 0.00 0.00 0.00 71 1017.9
20260903134003 12 0 0.0 0.0 0.00 0.00 0.00 71 1017.8
20260903132502 12 145 0.0 1.6 0.00 0.00 0.00 70 1017.7
20260903131503 12 0 0.0 0.0 0.00 0.00 0.00 70 1017.6
20260903131002 12 138 0.0 1.6 0.00 0.00 0.00 70 1017.7
20260903130502 12 0 0.0 0.0 0.00 0.00 0.00 70 1017.7
20260903130003 11 137 0.0 1.6 0.00 0.00 0.00 70 1017.7
20260903125502 11 0 0.0 0.0 0.00 0.00 0.00 70 1017.7
20260903125002 11 0 0.0 0.0 0.00 0.00 0.00 70 1017.7
20260903123003 12 0 0.0 0.0 0.00 0.00 0.00 70 1017.9
20260903122503 12 0 0.0 0.0 0.00 0.00 0.00 70 1017.9
20260903122002 12 0 0.0 0.0 0.00 0.00 0.00 70 1017.9
20260903121503 12 0 0.0 0.0 0.00 0.00 0.00 70 1017.8
20260903120502 12 176 0.0 1.6 0.00 0.00 0.00 70 1017.8
20260903120003 11 182 0.0 1.6 0.00 0.00 0.00 69 1017.8
20260903115502 12 182 0.0 1.6 0.00 0.00 0.00 69 1017.8
20260903115002 12 0 0.0 0.0 0.00 0.00 0.00 68 1017.8
20260903114503 12 182 0.0 1.6 0.00 0.00 0.00 68 1017.9
20260903114002 12 183 0.0 1.6 0.00 0.00 0.00 67 1017.8
20260903113503 12 182 0.0 1.6 0.00 0.00 0.00 67 1017.9
20260903113002 12 0 0.0 0.0 0.00 0.00 0.00 67 1017.8
20260903112502 12 0 0.0 0.0 0.00 0.00 0.00 67 1018.0
20260903112003 12 182 0.0 1.6 0.00 0.00 0.00 67 1017.9
20260903111503 12 182 0.0 4.8 0.00 0.00 0.00 67 1017.9
20260903111002 12 182 0.0 1.6 0.00 0.00 0.00 67 1018.0
20260903110503 12 181 0.0 1.6 0.00 0.00 0.00 66 1018.0
20260903110003 12 158 0.0 1.6 0.00 0.00 0.00 66 1018.0
20260903105503 12 155 0.0 1.6 0.00 0.00 0.00 67 1018.1
20260903105003 12 154 0.0 1.6 0.00 0.00 0.00 66 1018.1
20260903104503 12 0 0.0 0.0 0.00 0.00 0.00 65 1018.0
20260903104003 12 149 0.0 1.6 0.00 0.00 0.00 66 1018.1
20260903103503 12 0 0.0 0.0 0.00 0.00 0.00 65 1018.2
20260903103003 13 0 0.0 0.0 0.00 0.00 0.00 64 1018.0
20260903102503 13 0 0.0 0.0 0.00 0.00 0.00 64 1018.1
20260903102002 13 0 0.0 0.0 0.00 0.00 0.00 64 1018.2
20260903101503 13 0 0.0 0.0 0.00 0.00 0.00 63 1018.2
20260903101003 13 0 0.0 0.0 0.00 0.00 0.00 63 1018.1
20260903100502 13 0 0.0 0.0 0.00 0.00 0.00 63 1018.0
20260903100003 13 0 0.0 0.0 0.00 0.00 0.00 63 1018.1
20260903095503 13 0 0.0 0.0 0.00 0.00 0.00 62 1018.1
20260903095002 13 0 0.0 0.0 0.00 0.00 0.00 62 1018.2
20260903094503 13 0 0.0 0.0 0.00 0.00 0.00 62 1018.2
20260903094003 13 0 0.0 0.0 0.00 0.00 0.00 61 1018.3
20260903092503 14 0 0.0 0.0 0.00 0.00 0.00 60 1018.4
20260903092003 14 0 0.0 0.0 0.00 0.00 0.00 60 1018.4
20260903091503 14 0 0.0 0.0 0.00 0.00 0.00 59 1018.5
20260903091003 14 0 0.0 0.0 0.00 0.00 0.00 59 1018.5
20260903090503 15 0 0.0 0.0 0.00 0.00 0.00 59 1018.6
20260903090003 15 0 0.0 0.0 0.00 0.00 0.00 59 1018.6
20260903085503 15 0 1.6 0.0 0.00 0.00 0.00 59 1018.5
20260903085002 15 153 4.8 4.8 0.00 0.00 0.00 59 1018.6
20260903084503 14 181 3.2 4.8 0.00 0.00 0.00 59 1018.6
20260903084004 14 158 1.6 20.9 0.00 0.00 0.00 60 1018.6
20260903083002 14 216 0.0 3.2 0.00 0.00 0.00 58 1018.6
20260903082503 14 229 0.0 1.6 0.00 0.00 0.00 58 1018.7
20260903082003 15 229 0.0 1.6 0.00 0.00 0.00 58 1018.8
20260903081502 15 0 0.0 0.0 0.00 0.00 0.00 58 1018.9
20260903080503 15 0 0.0 0.0 0.00 0.00 0.00 57 1019.0
20260903075503 15 0 3.2 0.0 0.00 0.00 0.00 56 1018.8
20260903075002 15 192 4.8 3.2 0.00 0.00 0.00 57 1018.9
20260903074003 15 131 3.2 12.9 0.00 0.00 0.00 59 1019.0
20260903073502 15 142 3.2 12.9 0.00 0.00 0.00 59 1018.9
20260903073003 15 145 3.2 8.0 0.00 0.00 0.00 59 1018.9
20260903072503 15 135 3.2 8.0 0.00 0.00 0.00 60 1018.9
20260903072003 14 134 1.6 9.7 0.00 0.00 0.00 60 1018.9
20260903071003 14 130 1.6 3.2 0.00 0.00 0.00 60 1018.9
20260903070004 14 155 1.6 9.7 0.00 0.00 0.00 59 1018.9
20260903065503 14 151 0.0 3.2 0.00 0.00 0.00 59 1018.8
20260903064503 14 0 0.0 0.0 0.00 0.00 0.00 58 1018.9
20260903063503 15 298 0.0 1.6 0.00 0.00 0.00 57 1018.9
20260903063003 15 0 0.0 0.0 0.00 0.00 0.00 57 1018.9
20260903062503 15 0 0.0 0.0 0.00 0.00 0.00 57 1019.0
20260903062003 15 0 0.0 0.0 0.00 0.00 0.00 57 1019.0
20260903061503 15 297 0.0 1.6 0.00 0.00 0.00 57 1019.1
20260903061003 15 297 0.0 1.6 0.00 0.00 0.00 55 1018.9
20260903060502 15 297 0.0 1.6 0.00 0.00 0.00 55 1018.8
20260903055502 15 0 1.6 0.0 0.00 0.00 0.00 53 1019.0
20260903054503 15 123 0.0 4.8 0.00 0.00 0.00 54 1018.9
20260903054003 15 162 0.0 3.2 0.00 0.00 0.00 53 1019.0
20260903053503 15 168 0.0 1.6 0.00 0.00 0.00 53 1019.0
20260903053002 15 0 0.0 0.0 0.00 0.00 0.00 52 1019.0
20260903052503 16 168 0.0 1.6 0.00 0.00 0.00 52 1019.0
20260903052003 16 0 0.0 0.0 0.00 0.00 0.00 52 1019.0
20260903050503 16 139 3.2 9.7 0.00 0.00 0.00 53 1019.1
20260903050003 16 150 1.6 11.3 0.00 0.00 0.00 52 1019.1
20260903045503 16 177 1.6 4.8 0.00 0.00 0.00 52 1019.1
20260903045003 16 177 3.2 11.3 0.00 0.00 0.00 52 1019.0
20260903044003 16 154 3.2 14.5 0.00 0.00 0.00 52 1018.9
20260903043004 16 150 4.8 6.4 0.00 0.00 0.00 52 1018.9
20260903042503 16 152 4.8 8.0 0.00 0.00 0.00 52 1018.8
20260903042003 16 155 1.6 9.7 0.00 0.00 0.00 53 1019.0
20260903041004 16 169 4.8 4.8 0.00 0.00 0.00 53 1019.0
20260903040003 16 146 4.8 16.1 0.00 0.00 0.00 53 1018.9
20260903035003 16 164 3.2 6.4 0.00 0.00 0.00 52 1018.8
20260903034503 16 145 4.8 6.4 0.00 0.00 0.00 52 1018.7
20260903034003 16 165 3.2 9.7 0.00 0.00 0.00 49 1018.6
20260903033503 16 155 0.0 8.0 0.00 0.00 0.00 49 1018.5
20260903033003 16 0 0.0 0.0 0.00 0.00 0.00 48 1018.6
20260903032503 16 179 0.0 1.6 0.00 0.00 0.00 47 1018.5
20260903032004 16 0 0.0 0.0 0.00 0.00 0.00 47 1018.5
20260903031503 16 0 0.0 0.0 0.00 0.00 0.00 49 1018.5
20260903031003 17 163 0.0 1.6 0.00 0.00 0.00 48 1018.3
20260903030503 17 0 0.0 0.0 0.00 0.00 0.00 48 1018.2
20260903030003 17 0 3.2 0.0 0.00 0.00 0.00 49 1018.2
20260903025503 17 153 3.2 4.8 0.00 0.00 0.00 50 1018.3
20260903025004 17 139 1.6 9.7 0.00 0.00 0.00 50 1018.3
20260903024503 17 140 0.0 3.2 0.00 0.00 0.00 46 1018.3
20260903024003 17 171 1.6 4.8 0.00 0.00 0.00 42 1018.2
20260903023503 17 182 4.8 1.6 0.00 0.00 0.00 43 1018.4
20260903023003 17 179 4.8 9.7 0.00 0.00 0.00 43 1018.4
20260903022503 17 211 8.0 8.0 0.00 0.00 0.00 43 1018.3
20260903021504 17 211 8.0 16.1 0.00 0.00 0.00 43 1018.4
20260903021003 18 206 8.0 16.1 0.00 0.00 0.00 42 1018.4
20260903020503 18 223 9.7 11.3 0.00 0.00 0.00 41 1018.4
20260903020004 18 222 11.3 14.5 0.00 0.00 0.00 41 1018.4
20260903015504 18 224 11.3 20.9 0.00 0.00 0.00 41 1018.4
20260903015003 18 226 9.7 20.9 0.00 0.00 0.00 39 1018.3
20260903014503 18 224 8.0 16.1 0.00 0.00 0.00 38 1018.4
20260903014003 19 216 9.7 14.5 0.00 0.00 0.00 38 1018.4
20260903013504 19 227 12.9 17.7 0.00 0.00 0.00 37 1018.3
20260903013003 19 221 12.9 20.9 0.00 0.00 0.00 37 1018.3
20260903012503 19 228 12.9 20.9 0.00 0.00 0.00 40 1018.4
20260903012003 19 222 14.5 19.3 0.00 0.00 0.00 41 1018.4
20260903011504 20 232 12.9 25.7 0.00 0.00 0.00 41 1018.3
20260903011004 20 217 12.9 22.5 0.00 0.00 0.00 42 1018.4
20260903010503 20 227 12.9 17.7 0.00 0.00 0.00 42 1018.4
20260903005003 20 234 17.7 20.9 0.00 0.00 0.00 42 1018.6
20260903003503 20 231 17.7 32.2 0.00 0.00 0.00 42 1018.5
20260903003003 20 215 19.3 24.1 0.00 0.00 0.00 42 1018.6
20260903002503 20 229 19.3 29.0 0.00 0.00 0.00 42 1018.6
20260903002003 20 221 17.7 27.4 0.00 0.00 0.00 42 1018.6
20260903001503 20 231 19.3 27.4 0.00 0.00 0.00 40 1018.4
20260903001003 20 230 17.7 32.2 0.00 0.00 0.00 40 1018.4
20260903000004 20 219 19.3 29.0 0.00 0.00 0.00 40 1018.5
20260902235003 20 234 19.3 24.1 0.00 0.00 0.00 38 1018.5
20260902234504 20 230 17.7 25.7 0.00 0.00 0.00 39 1018.5
20260902234003 20 233 16.1 29.0 0.00 0.00 0.00 37 1018.6
20260902233503 20 222 17.7 25.7 0.00 0.00 0.00 38 1018.7
20260902233004 20 233 19.3 27.4 0.00 0.00 0.00 38 1018.6
20260902232503 20 230 19.3 30.6 0.00 0.00 0.00 38 1018.6
20260902231503 20 225 22.5 27.4 0.00 0.00 0.00 38 1018.6
20260902231004 20 228 22.5 33.8 0.00 0.00 0.00 39 1018.7
20260902225503 20 234 22.5 32.2 0.00 0.00 0.00 41 1018.7
20260902225003 20 233 24.1 33.8 0.00 0.00 0.00 40 1018.7
20260902224503 20 233 22.5 35.4 0.00 0.00 0.00 42 1018.8
20260902224003 20 239 22.5 33.8 0.00 0.00 0.00 42 1018.8
20260902222503 20 231 22.5 35.4 0.00 0.00 0.00 42 1018.9
20260902222004 20 237 22.5 37.0 0.00 0.00 0.00 42 1019.0
20260902221503 20 230 20.9 32.2 0.00 0.00 0.00 42 1019.1
20260902220504 20 224 19.3 27.4 0.00 0.00 0.00 42 1018.9
20260902220003 20 230 19.3 27.4 0.00 0.00 0.00 43 1019.0
20260902214003 20 230 17.7 29.0 0.00 0.00 0.00 41 1019.1
20260902213004 20 206 19.3 29.0 0.00 0.00 0.00 43 1019.2
20260902212502 20 230 17.7 35.4 0.00 0.00 0.00 42 1019.1
20260902212002 20 223 17.7 25.7 0.00 0.00 0.00 42 1019.2
20260902211502 20 219 19.3 27.4 0.00 0.00 0.00 41 1019.2
20260902211002 20 223 22.5 30.6 0.00 0.00 0.00 42 1019.0
20260902210502 20 234 20.9 32.2 0.00 0.00 0.00 42 1019.1
20260902210002 21 234 19.3 29.0 0.00 0.00 0.00 42 1019.0
20260902205503 20 231 17.7 30.6 0.00 0.00 0.00 40 1019.2
20260902205002 21 236 12.9 29.0 0.00 0.00 0.00 39 1019.1
20260902204502 20 237 14.5 20.9 0.00 0.00 0.00 40 1019.2
20260902204002 20 241 16.1 24.1 0.00 0.00 0.00 41 1019.3
20260902203502 20 241 14.5 20.9 0.00 0.00 0.00 42 1019.3
20260902202002 19 245 16.1 24.1 0.00 0.00 0.00 44 1019.3
20260902201502 19 243 14.5 24.1 0.00 0.00 0.00 43 1019.3
20260902201002 19 235 14.5 22.5 0.00 0.00 0.00 44 1019.4